Time,TemperatureF,DewpointF,PressureIn,WindDirection,WindDirectionDegrees,WindSpeedMPH,WindSpeedGustMPH,Humidity,HourlyPrecipIn,Conditions,Clouds,dailyrainin,SoftwareType,DateUTC
2013-02-28 00:01:00,63.0,51.0,-100.00,East,86,4.0,11.0,66,0.00,,,0.00,,2013-02-28 10:01:00,
2013-02-28 00:11:00,62.0,51.0,-100.00,East,97,4.0,9.0,67,0.00,,,0.00,,2013-02-28 10:11:00,
2013-02-28 00:32:00,62.0,51.0,-100.00,East,97,4.0,9.0,67,0.00,,,0.00,,2013-02-28 10:32:00,
2013-02-28 00:42:00,62.0,51.0,-100.00,East,97,4.0,9.0,67,0.00,,,0.00,,2013-02-28 10:42:00,
2013-02-28 00:52:00,62.0,51.0,-100.00,East,97,4.0,9.0,67,0.00,,,0.00,,2013-02-28 10:52:00,
2013-02-28 01:01:00,62.0,51.0,-100.00,East,97,4.0,9.0,67,0.00,,,0.00,,2013-02-28 11:01:00,
2013-02-28 01:11:00,60.0,51.0,-100.00,ESE,106,1.0,12.0,71,0.00,,,0.00,,2013-02-28 11:11:00,
2013-02-28 01:32:00,60.0,51.0,-100.00,ESE,106,1.0,12.0,71,0.00,,,0.00,,2013-02-28 11:32:00,
2013-02-28 01:42:00,60.0,51.0,-100.00,ESE,106,1.0,12.0,71,0.00,,,0.00,,2013-02-28 11:42:00,
2013-02-28 01:52:00,60.0,51.0,-100.00,ESE,106,1.0,12.0,71,0.00,,,0.00,,2013-02-28 11:52:00,
2013-02-28 02:01:00,60.0,51.0,-100.00,ESE,106,1.0,12.0,71,0.00,,,0.00,,2013-02-28 12:01:00,
2013-02-28 02:11:00,60.0,49.0,-100.00,East,85,2.0,8.0,67,0.00,,,0.00,,2013-02-28 12:11:00,
2013-02-28 02:32:00,60.0,49.0,-100.00,East,85,2.0,8.0,67,0.00,,,0.00,,2013-02-28 12:32:00,
2013-02-28 02:42:00,60.0,49.0,-100.00,East,85,2.0,8.0,67,0.00,,,0.00,,2013-02-28 12:42:00,
2013-02-28 02:52:00,60.0,49.0,-100.00,East,85,2.0,8.0,67,0.00,,,0.00,,2013-02-28 12:52:00,
2013-02-28 03:01:00,60.0,49.0,-100.00,East,85,2.0,8.0,67,0.00,,,0.00,,2013-02-28 13:01:00,
2013-02-28 03:11:00,58.0,50.0,-100.00,SW,219,0.0,8.0,74,0.00,,,0.00,,2013-02-28 13:11:00,
2013-02-28 03:32:00,58.0,50.0,-100.00,SW,219,0.0,8.0,74,0.00,,,0.00,,2013-02-28 13:32:00,
2013-02-28 03:42:00,58.0,50.0,-100.00,SW,219,0.0,8.0,74,0.00,,,0.00,,2013-02-28 13:42:00,
2013-02-28 03:52:00,58.0,50.0,-100.00,SW,219,0.0,8.0,74,0.00,,,0.00,,2013-02-28 13:52:00,
2013-02-28 04:01:00,58.0,50.0,-100.00,SW,219,0.0,8.0,74,0.00,,,0.00,,2013-02-28 14:01:00,
2013-02-28 04:11:00,59.0,48.0,-100.00,NE,44,0.0,6.0,68,0.00,,,0.00,,2013-02-28 14:11:00,
2013-02-28 04:32:00,59.0,48.0,-100.00,NE,44,0.0,6.0,68,0.00,,,0.00,,2013-02-28 14:32:00,
2013-02-28 04:42:00,59.0,48.0,-100.00,NE,44,0.0,6.0,68,0.00,,,0.00,,2013-02-28 14:42:00,
2013-02-28 04:52:00,59.0,48.0,-100.00,NE,44,0.0,6.0,68,0.00,,,0.00,,2013-02-28 14:52:00,
2013-02-28 05:02:00,59.0,48.0,-100.00,NE,44,0.0,6.0,68,0.00,,,0.00,,2013-02-28 15:02:00,
2013-02-28 05:11:00,59.0,49.0,-100.00,ESE,107,0.0,5.0,69,0.00,,,0.00,,2013-02-28 15:11:00,
2013-02-28 05:32:00,59.0,49.0,-100.00,ESE,107,0.0,5.0,69,0.00,,,0.00,,2013-02-28 15:32:00,
2013-02-28 05:42:00,59.0,49.0,-100.00,ESE,107,0.0,5.0,69,0.00,,,0.00,,2013-02-28 15:42:00,
2013-02-28 05:52:00,59.0,49.0,-100.00,ESE,107,0.0,5.0,69,0.00,,,0.00,,2013-02-28 15:52:00,
2013-02-28 06:01:00,59.0,49.0,-100.00,ESE,107,0.0,5.0,69,0.00,,,0.00,,2013-02-28 16:01:00,
2013-02-28 06:11:00,59.0,49.0,-100.00,NE,43,0.0,4.0,70,0.00,,,0.00,,2013-02-28 16:11:00,
2013-02-28 06:32:00,59.0,49.0,-100.00,NE,43,0.0,4.0,70,0.00,,,0.00,,2013-02-28 16:32:00,
2013-02-28 06:42:00,59.0,49.0,-100.00,NE,43,0.0,4.0,70,0.00,,,0.00,,2013-02-28 16:42:00,
2013-02-28 06:52:00,59.0,49.0,-100.00,NE,43,0.0,4.0,70,0.00,,,0.00,,2013-02-28 16:52:00,
2013-02-28 07:01:00,59.0,49.0,-100.00,NE,43,0.0,4.0,70,0.00,,,0.00,,2013-02-28 17:01:00,
2013-02-28 07:11:00,62.0,56.0,-100.00,ENE,64,2.0,8.0,81,0.00,,,0.00,,2013-02-28 17:11:00,
2013-02-28 07:42:00,62.0,56.0,-100.00,ENE,64,2.0,8.0,81,0.00,,,0.00,,2013-02-28 17:42:00,
2013-02-28 07:52:00,62.0,56.0,-100.00,ENE,64,2.0,8.0,81,0.00,,,0.00,,2013-02-28 17:52:00,
2013-02-28 08:01:00,62.0,56.0,-100.00,ENE,64,2.0,8.0,81,0.00,,,0.00,,2013-02-28 18:01:00,
2013-02-28 08:11:00,65.0,53.0,-100.00,East,84,1.0,6.0,66,0.00,,,0.00,,2013-02-28 18:11:00,
2013-02-28 08:42:00,65.0,53.0,-100.00,East,84,1.0,6.0,66,0.00,,,0.00,,2013-02-28 18:42:00,
2013-02-28 08:52:00,65.0,53.0,-100.00,East,84,1.0,6.0,66,0.00,,,0.00,,2013-02-28 18:52:00,
2013-02-28 09:01:00,65.0,53.0,-100.00,East,84,1.0,6.0,66,0.00,,,0.00,,2013-02-28 19:01:00,
2013-02-28 09:11:00,68.0,56.0,-100.00,North,10,0.0,5.0,65,0.00,,,0.00,,2013-02-28 19:11:00,
2013-02-28 09:42:00,68.0,56.0,-100.00,North,10,0.0,5.0,65,0.00,,,0.00,,2013-02-28 19:42:00,
2013-02-28 09:52:00,68.0,56.0,-100.00,North,10,0.0,5.0,65,0.00,,,0.00,,2013-02-28 19:52:00,
2013-02-28 10:01:00,68.0,56.0,-100.00,North,10,0.0,5.0,65,0.00,,,0.00,,2013-02-28 20:01:00,
2013-02-28 10:11:00,78.0,58.0,-100.00,NNW,333,0.0,5.0,51,0.00,,,0.00,,2013-02-28 20:11:00,
2013-02-28 10:32:00,78.0,58.0,-100.00,NNW,333,0.0,5.0,51,0.00,,,0.00,,2013-02-28 20:32:00,
2013-02-28 10:42:00,78.0,58.0,-100.00,NNW,333,0.0,5.0,51,0.00,,,0.00,,2013-02-28 20:42:00,
2013-02-28 10:52:00,78.0,58.0,-100.00,NNW,333,0.0,5.0,51,0.00,,,0.00,,2013-02-28 20:52:00,
2013-02-28 11:01:00,78.0,58.0,-100.00,NNW,333,0.0,5.0,51,0.00,,,0.00,,2013-02-28 21:01:00,
2013-02-28 11:11:00,78.0,57.0,-100.00,ENE,66,2.0,8.0,48,0.00,,,0.00,,2013-02-28 21:11:00,
2013-02-28 11:32:00,78.0,57.0,-100.00,ENE,66,2.0,8.0,48,0.00,,,0.00,,2013-02-28 21:32:00,
2013-02-28 11:42:00,78.0,57.0,-100.00,ENE,66,2.0,8.0,48,0.00,,,0.00,,2013-02-28 21:42:00,
2013-02-28 11:52:00,78.0,57.0,-100.00,ENE,66,2.0,8.0,48,0.00,,,0.00,,2013-02-28 21:52:00,
2013-02-28 12:01:00,78.0,57.0,-100.00,ENE,66,2.0,8.0,48,0.00,,,0.00,,2013-02-28 22:01:00,
2013-02-28 12:11:00,79.0,55.0,-100.00,WNW,299,2.0,12.0,43,0.00,,,0.00,,2013-02-28 22:11:00,
2013-02-28 12:42:00,79.0,55.0,-100.00,WNW,299,2.0,12.0,43,0.00,,,0.00,,2013-02-28 22:42:00,
2013-02-28 12:52:00,79.0,55.0,-100.00,WNW,299,2.0,12.0,43,0.00,,,0.00,,2013-02-28 22:52:00,
2013-02-28 13:01:00,79.0,55.0,-100.00,WNW,299,2.0,12.0,43,0.00,,,0.00,,2013-02-28 23:01:00,
2013-02-28 13:11:00,79.0,57.0,-100.00,NNE,29,2.0,11.0,47,0.00,,,0.00,,2013-02-28 23:11:00,
2013-02-28 13:32:00,79.0,57.0,-100.00,NNE,29,2.0,11.0,47,0.00,,,0.00,,2013-02-28 23:32:00,
2013-02-28 13:42:00,79.0,57.0,-100.00,NNE,29,2.0,11.0,47,0.00,,,0.00,,2013-02-28 23:42:00,
2013-02-28 13:52:00,79.0,57.0,-100.00,NNE,29,2.0,11.0,47,0.00,,,0.00,,2013-02-28 23:52:00,
2013-02-28 14:01:00,79.0,57.0,-100.00,NNE,29,2.0,11.0,47,0.00,,,0.00,,2013-03-01 00:01:00,
2013-02-28 14:11:00,72.0,55.0,-100.00,NNW,345,1.0,6.0,56,0.00,,,0.00,,2013-03-01 00:11:00,
2013-02-28 14:32:00,72.0,55.0,-100.00,NNW,345,1.0,6.0,56,0.00,,,0.00,,2013-03-01 00:32:00,
2013-02-28 14:42:00,72.0,55.0,-100.00,NNW,345,1.0,6.0,56,0.00,,,0.00,,2013-03-01 00:42:00,
2013-02-28 14:52:00,72.0,55.0,-100.00,NNW,345,1.0,6.0,56,0.00,,,0.00,,2013-03-01 00:52:00,
2013-02-28 15:01:00,72.0,55.0,-100.00,NNW,345,1.0,6.0,56,0.00,,,0.00,,2013-03-01 01:01:00,
2013-02-28 15:11:00,78.0,58.0,-100.00,NE,40,1.0,6.0,50,0.00,,,0.00,,2013-03-01 01:11:00,
2013-02-28 15:32:00,78.0,58.0,-100.00,NE,40,1.0,6.0,50,0.00,,,0.00,,2013-03-01 01:32:00,
2013-02-28 15:42:00,78.0,58.0,-100.00,NE,40,1.0,6.0,50,0.00,,,0.00,,2013-03-01 01:42:00,
2013-02-28 15:52:00,78.0,58.0,-100.00,NE,40,1.0,6.0,50,0.00,,,0.00,,2013-03-01 01:52:00,
2013-02-28 16:01:00,78.0,58.0,-100.00,NE,40,1.0,6.0,50,0.00,,,0.00,,2013-03-01 02:01:00,
2013-02-28 16:11:00,78.0,53.0,-100.00,WSW,238,2.0,9.0,42,0.00,,,0.00,,2013-03-01 02:11:00,
2013-02-28 16:32:00,78.0,53.0,-100.00,WSW,238,2.0,9.0,42,0.00,,,0.00,,2013-03-01 02:32:00,
2013-02-28 16:42:00,78.0,53.0,-100.00,WSW,238,2.0,9.0,42,0.00,,,0.00,,2013-03-01 02:42:00,
2013-02-28 16:52:00,78.0,53.0,-100.00,WSW,238,2.0,9.0,42,0.00,,,0.00,,2013-03-01 02:52:00,
2013-02-28 17:01:00,78.0,53.0,-100.00,WSW,238,2.0,9.0,42,0.00,,,0.00,,2013-03-01 03:01:00,
2013-02-28 17:11:00,80.0,58.0,-100.00,West,281,1.0,8.0,47,0.00,,,0.00,,2013-03-01 03:11:00,
2013-02-28 17:32:00,80.0,58.0,-100.00,West,281,1.0,8.0,47,0.00,,,0.00,,2013-03-01 03:32:00,
2013-02-28 17:42:00,80.0,58.0,-100.00,West,281,1.0,8.0,47,0.00,,,0.00,,2013-03-01 03:42:00,
2013-02-28 17:52:00,80.0,58.0,-100.00,West,281,1.0,8.0,47,0.00,,,0.00,,2013-03-01 03:52:00,
2013-02-28 18:01:00,80.0,58.0,-100.00,West,281,1.0,8.0,47,0.00,,,0.00,,2013-03-01 04:01:00,
2013-02-28 18:11:00,71.0,51.0,-100.00,ESE,102,5.0,9.0,49,0.00,,,0.00,,2013-03-01 04:11:00,
2013-02-28 18:42:00,71.0,51.0,-100.00,ESE,102,5.0,9.0,49,0.00,,,0.00,,2013-03-01 04:42:00,
2013-02-28 18:52:00,71.0,51.0,-100.00,ESE,102,5.0,9.0,49,0.00,,,0.00,,2013-03-01 04:52:00,
2013-02-28 19:01:00,71.0,51.0,-100.00,ESE,102,5.0,9.0,49,0.00,,,0.00,,2013-03-01 05:01:00,
2013-02-28 19:11:00,63.0,50.0,-100.00,NE,50,4.0,11.0,63,0.00,,,0.00,,2013-03-01 05:11:00,
2013-02-28 19:33:00,63.0,50.0,-100.00,NE,50,4.0,11.0,63,0.00,,,0.00,,2013-03-01 05:33:00,
2013-02-28 19:42:00,63.0,50.0,-100.00,NE,50,4.0,11.0,63,0.00,,,0.00,,2013-03-01 05:42:00,
2013-02-28 19:52:00,63.0,50.0,-100.00,NE,50,4.0,11.0,63,0.00,,,0.00,,2013-03-01 05:52:00,
2013-02-28 20:01:00,63.0,50.0,-100.00,NE,50,4.0,11.0,63,0.00,,,0.00,,2013-03-01 06:01:00,
2013-02-28 20:11:00,63.0,52.0,-100.00,South,170,4.0,10.0,67,0.00,,,0.00,,2013-03-01 06:11:00,
2013-02-28 20:32:00,63.0,52.0,-100.00,South,170,4.0,10.0,67,0.00,,,0.00,,2013-03-01 06:32:00,
2013-02-28 20:42:00,63.0,52.0,-100.00,South,170,4.0,10.0,67,0.00,,,0.00,,2013-03-01 06:42:00,
2013-02-28 20:52:00,63.0,52.0,-100.00,South,170,4.0,10.0,67,0.00,,,0.00,,2013-03-01 06:52:00,
2013-02-28 21:01:00,63.0,52.0,-100.00,South,170,4.0,10.0,67,0.00,,,0.00,,2013-03-01 07:01:00,
2013-02-28 21:11:00,61.0,50.0,-100.00,WSW,247,0.0,13.0,67,0.00,,,0.00,,2013-03-01 07:11:00,
2013-02-28 21:32:00,61.0,50.0,-100.00,WSW,247,0.0,13.0,67,0.00,,,0.00,,2013-03-01 07:32:00,
2013-02-28 21:42:00,61.0,50.0,-100.00,WSW,247,0.0,13.0,67,0.00,,,0.00,,2013-03-01 07:42:00,
2013-02-28 21:52:00,61.0,50.0,-100.00,WSW,247,0.0,13.0,67,0.00,,,0.00,,2013-03-01 07:52:00,
2013-02-28 22:01:00,61.0,50.0,-100.00,WSW,247,0.0,13.0,67,0.00,,,0.00,,2013-03-01 08:01:00,
2013-02-28 22:11:00,60.0,52.0,-100.00,NE,56,0.0,9.0,76,0.00,,,0.00,,2013-03-01 08:11:00,
2013-02-28 22:32:00,60.0,52.0,-100.00,NE,56,0.0,9.0,76,0.00,,,0.00,,2013-03-01 08:32:00,
2013-02-28 22:43:00,60.0,52.0,-100.00,NE,56,0.0,9.0,76,0.00,,,0.00,,2013-03-01 08:43:00,
2013-02-28 22:53:00,60.0,52.0,-100.00,NE,56,0.0,9.0,76,0.00,,,0.00,,2013-03-01 08:53:00,
2013-02-28 23:02:00,60.0,52.0,-100.00,NE,56,0.0,9.0,76,0.00,,,0.00,,2013-03-01 09:02:00,
2013-02-28 23:11:00,61.0,54.0,-100.00,South,171,0.0,6.0,77,0.00,,,0.00,,2013-03-01 09:11:00,
2013-02-28 23:32:00,61.0,54.0,-100.00,South,171,0.0,6.0,77,0.00,,,0.00,,2013-03-01 09:32:00,
2013-02-28 23:42:00,61.0,54.0,-100.00,South,171,0.0,6.0,77,0.00,,,0.00,,2013-03-01 09:42:00,
2013-02-28 23:52:00,61.0,54.0,-100.00,South,171,0.0,6.0,77,0.00,,,0.00,,2013-03-01 09:52:00,